Volver al catálogo

SOLRAD 3/INJUN 1

ActivoCienciaLEO
NORAD 117·PAYLOAD·🇺🇸 United States

Lanzado Jun 29, 1961 desde Cape Canaveral Space Force Station

Loading…

Próximos Pases (próximas 24 horas)

TLE

ActualizadoSource: Space-Track

Época: Sep 14, 2026, 22:40 UTC

1 00117U 61015B   26257.94448211 -.00000016  00000-0  47520-4 0  9997
2 00117  66.8121 146.3172 0083357 237.6917 121.6070 13.90198462306537

Sigue SOLRAD 3/INJUN 1 en tiempo real con AllMySat

Download on the App Store